This demonstration page uses our WeatherBlox Daily Observations layout. Learn more.

Left ArrowRight Arrow

39.08367, -84.50855

Hourly Observations for May 13, 2020

Temp ( °F °C ) Dew Point ( °F °C ) Humidity (%) Winds ( mph kmh ) Pressure ( in mb ) Visibility ( mi km ) Precip ( " mm )
12:53 am 00:53 Mostly Clear 40 4.4 39 3.9 97 97 Calm 30.27 1025 10 16.0934 0 0
1:53 am 01:53 Clear 40 4.4 39 3.9 97 97 Calm 30.28 1025 10 16.0934 0 0
2:53 am 02:53 Clear 38 3.3 37 2.8 97 97 Calm 30.27 1025 9 14.48406 0 0
3:53 am 03:53 Clear 38 3.3 37 2.8 97 97 Calm 30.28 1025 8 12.87472 0 0
4:53 am 04:53 Clear 40 4.4 38 3.3 93 93 NNE 3 6 30.28 1026 10 16.0934 0 0
5:53 am 05:53 Clear 38 3.3 36 2.2 93 93 Calm 30.29 1026 7 11.26538 0 0
6:53 am 06:53 Cloudy 40 4.4 39 3.9 97 97 Calm 30.3 1026 10 16.0934 0 0
7:53 am 07:53 Cloudy 42 5.6 40 4.4 92 92 NNE 3 6 30.32 1027 10 16.0934 0 0
8:53 am 08:53 Cloudy 45 7.2 42 5.6 90 90 Calm 30.34 1027 10 16.0934 0 0
9:53 am 09:53 Cloudy 50 10 44 6.7 80 80 Calm 30.34 1027 10 16.0934 0 0
10:53 am 10:53 Cloudy 55 12.8 42 5.6 62 62 S 8 13 30.33 1027 10 16.0934 0 0
11:53 am 11:53 Cloudy 55 12.8 41 5 59 59 SE 7 11 30.34 1027 10 16.0934 0 0
12:53 pm 12:53 Cloudy 56 13.3 42 5.6 60 60 SE 9 15 30.32 1027 10 16.0934 0 0
1:53 pm 13:53 Cloudy 58 14.4 40 4.4 51 51 SSE 9 15 30.3 1026 10 16.0934 0 0
2:53 pm 14:53 Cloudy 59 15 38 3.3 46 46 SSE 10 17 30.28 1026 10 16.0934 0 0
3:53 pm 15:53 Cloudy 58 14.4 40 4.4 51 51 S 9 15 30.27 1025 10 16.0934 0 0
4:53 pm 16:53 Cloudy 59 15 42 5.6 54 54 ESE 9 15 30.24 1024 10 16.0934 0 0
5:53 pm 17:53 Cloudy 59 15 44 6.7 58 58 SSE 7 11 30.24 1024 10 16.0934 0 0
6:53 pm 18:53 Cloudy 59 15 45 7.2 60 60 VRB 7 11 30.22 1023 10 16.0934 0 0
7:24 pm 19:24 Cloudy 58 14.4 45 7.2 62 62 VRB 6 9 30.21 1023 10 16.0934 0 0
7:53 pm 19:53 Cloudy 57 13.9 46 7.8 67 67 S 6 9 30.22 1023 10 16.0934 0 0
8:53 pm 20:53 Cloudy 56 13.3 46 7.8 70 70 SSE 6 9 30.21 1023 10 16.0934 0 0
9:53 pm 21:53 Cloudy 56 13.3 47 8.3 72 72 SSE 5 7 30.21 1023 10 16.0934 0 0
10:19 pm 22:19 Cloudy 55 12.8 48 8.9 77 77 SSE 5 7 30.21 1023 10 16.0934 0 0
10:53 pm 22:53 Cloudy 54 12.2 49 9.4 83 83 S 7 11 30.2 1023 10 16.0934 0 0
11:26 pm 23:26 Cloudy with Light Rain 54 12.2 50 10 87 87 Calm 30.2 1023 8 12.87472 0.001 0.001
11:53 pm 23:53 Cloudy 54 12.2 50 10 87 87 S 5 7 30.19 1022 10 16.0934 0.001 0.001

Powered by AerisWeather